Le nostre stazioni meteo in Italia

Pubblicità
Il mio iltempo24.it
Capo Frasca, Italia (16539): Temperatura & dewpoint: 13.08.2018 10:00:00 - 19.08.2018 10:00:00 (CEST)Capo Frasca, Italia (16539): velocità del vento: 13.08.2018 10:00:00 - 19.08.2018 10:00:00 (CEST)Capo Frasca, Italia (16539): direzione del vento: 13.08.2018 10:00:00 - 19.08.2018 10:00:00 (CEST)Capo Frasca, Italia (16539): reduced air pressure: 13.08.2018 10:00:00 - 19.08.2018 10:00:00 (CEST)Capo Frasca, Italia (16539): visibility: 13.08.2018 10:00:00 - 19.08.2018 10:00:00 (CEST)
Data & Tempo tt [°C] td [°C] ff [km/h] ff [kn] dd ppp [hPa] vv [km]
19.08.2018 10:00:00 - - - - - - -
19.08.2018 09:00:00 - - - - - - -
19.08.2018 08:00:00 21,6 20,8 5 3 ENE 1015,9 25
19.08.2018 07:00:00 - - - - - - -
19.08.2018 06:00:00 - - - - - - -
19.08.2018 05:00:00 - - - - - - -
19.08.2018 04:00:00 - - - - - - -
19.08.2018 03:00:00 - - - - - - -
19.08.2018 02:00:00 - - - - - - -
19.08.2018 01:00:00 - - - - - - -
19.08.2018 00:00:00 - - - - - - -
18.08.2018 23:00:00 - - - - - - -
18.08.2018 22:00:00 - - - - - - -
18.08.2018 21:00:00 - - - - - - -
18.08.2018 20:00:00 25,0 22,5 5 3 ENE 1015,2 25
18.08.2018 19:00:00 - - - - - - -
18.08.2018 18:00:00 - - - - - - -
18.08.2018 17:00:00 26,0 22,9 9 5 NNE 1014,9 25
18.08.2018 16:00:00 - - - - - - -
18.08.2018 15:00:00 - - - - - - -
18.08.2018 14:00:00 25,8 25,8 16 9 SSO 1015,3 25
18.08.2018 13:00:00 - - - - - - -
18.08.2018 12:00:00 - - - - - - -
18.08.2018 11:00:00 27,2 24,7 9 5 E 1015,0 25
18.08.2018 10:00:00 - - - - - - -
18.08.2018 09:00:00 - - - - - - -
18.08.2018 08:00:00 21,4 20,7 11 6 E 1014,3 25
18.08.2018 07:00:00 - - - - - - -
18.08.2018 06:00:00 - - - - - - -
18.08.2018 05:00:00 - - - - - - -
18.08.2018 04:00:00 - - - - - - -
18.08.2018 03:00:00 - - - - - - -
18.08.2018 02:00:00 - - - - - - -
18.08.2018 01:00:00 - - - - - - -
18.08.2018 00:00:00 - - - - - - -
17.08.2018 23:00:00 - - - - - - -
17.08.2018 22:00:00 - - - - - - -
17.08.2018 21:00:00 - - - - - - -
17.08.2018 20:00:00 27,6 27,3 9 5 ONO 1013,9 20
17.08.2018 19:00:00 - - - - - - -
17.08.2018 18:00:00 - - - - - - -
17.08.2018 17:00:00 29,0 27,6 24 13 ONO 1013,9 20
17.08.2018 16:00:00 - - - - - - -
17.08.2018 15:00:00 - - - - - - -
17.08.2018 14:00:00 28,2 25,8 18 10 NO 1014,4 20
17.08.2018 13:00:00 - - - - - - -
17.08.2018 12:00:00 - - - - - - -
17.08.2018 11:00:00 27,2 24,9 8 4 ENE 1014,4 20
17.08.2018 10:00:00 - - - - - - -
17.08.2018 09:00:00 - - - - - - -
17.08.2018 08:00:00 23,2 22,5 8 4 E 1013,8 20
17.08.2018 07:00:00 - - - - - - -
17.08.2018 06:00:00 - - - - - - -
17.08.2018 05:00:00 - - - - - - -
17.08.2018 04:00:00 - - - - - - -
17.08.2018 03:00:00 - - - - - - -
17.08.2018 02:00:00 - - - - - - -
17.08.2018 01:00:00 - - - - - - -
17.08.2018 00:00:00 - - - - - - -
16.08.2018 23:00:00 - - - - - - -
16.08.2018 22:00:00 - - - - - - -
16.08.2018 21:00:00 - - - - - - -
16.08.2018 20:00:00 26,8 26,6 21 11 NNO 1012,9 25
16.08.2018 19:00:00 - - - - - - -
16.08.2018 18:00:00 - - - - - - -
16.08.2018 17:00:00 29,2 28,1 29 16 NNO 1013,0 20
16.08.2018 16:00:00 - - - - - - -
16.08.2018 15:00:00 - - - - - - -
16.08.2018 14:00:00 28,8 26,6 18 10 NO 1013,6 25
16.08.2018 13:00:00 - - - - - - -
16.08.2018 12:00:00 - - - - - - -
16.08.2018 11:00:00 27,2 24,9 8 4 ENE 1013,9 25
16.08.2018 10:00:00 - - - - - - -
16.08.2018 09:00:00 - - - - - - -
16.08.2018 08:00:00 22,2 21,2 5 3 ESE 1013,6 20
16.08.2018 07:00:00 - - - - - - -
16.08.2018 06:00:00 - - - - - - -
16.08.2018 05:00:00 - - - - - - -
16.08.2018 04:00:00 - - - - - - -
16.08.2018 03:00:00 - - - - - - -
16.08.2018 02:00:00 - - - - - - -
16.08.2018 01:00:00 - - - - - - -
16.08.2018 00:00:00 - - - - - - -
15.08.2018 23:00:00 - - - - - - -
15.08.2018 22:00:00 - - - - - - -
15.08.2018 21:00:00 - - - - - - -
15.08.2018 20:00:00 26,8 26,8 31 17 NNO 1012,9 25
15.08.2018 19:00:00 - - - - - - -
15.08.2018 18:00:00 - - - - - - -
15.08.2018 17:00:00 28,6 27,4 29 16 NNO 1012,8 20
15.08.2018 16:00:00 - - - - - - -
15.08.2018 15:00:00 - - - - - - -
15.08.2018 14:00:00 28,4 25,8 22 12 NO 1012,8 20
15.08.2018 13:00:00 - - - - - - -
15.08.2018 12:00:00 - - - - - - -
15.08.2018 11:00:00 27,2 25,4 11 6 NE 1012,4 20
15.08.2018 10:00:00 - - - - - - -
15.08.2018 09:00:00 - - - - - - -
15.08.2018 08:00:00 24,6 24,6 21 11 ONO 1011,9 20
15.08.2018 07:00:00 - - - - - - -
15.08.2018 06:00:00 - - - - - - -
15.08.2018 05:00:00 - - - - - - -
15.08.2018 04:00:00 - - - - - - -
15.08.2018 03:00:00 - - - - - - -
15.08.2018 02:00:00 - - - - - - -
15.08.2018 01:00:00 - - - - - - -
15.08.2018 00:00:00 - - - - - - -
14.08.2018 23:00:00 - - - - - - -
14.08.2018 22:00:00 - - - - - - -
14.08.2018 21:00:00 - - - - - - -
14.08.2018 20:00:00 - - - - - - -
14.08.2018 19:00:00 - - - - - - -
14.08.2018 18:00:00 - - - - - - -
14.08.2018 17:00:00 21,6 21,6 13 7 NO 1014,9 10
14.08.2018 16:00:00 - - - - - - -
14.08.2018 15:00:00 - - - - - - -
14.08.2018 14:00:00 28,6 27,9 16 9 ONO 1013,4 25
14.08.2018 13:00:00 - - - - - - -
14.08.2018 12:00:00 - - - - - - -
14.08.2018 11:00:00 27,2 25,4 8 4 NO 1013,7 25
14.08.2018 10:00:00 - - - - - - -
14.08.2018 09:00:00 - - - - - - -
14.08.2018 08:00:00 24,0 23,0 5 3 N 1012,8 20
14.08.2018 07:00:00 - - - - - - -
14.08.2018 06:00:00 - - - - - - -
14.08.2018 05:00:00 - - - - - - -
14.08.2018 04:00:00 - - - - - - -
14.08.2018 03:00:00 - - - - - - -
14.08.2018 02:00:00 - - - - - - -
14.08.2018 01:00:00 - - - - - - -
14.08.2018 00:00:00 - - - - - - -
13.08.2018 23:00:00 - - - - - - -
13.08.2018 22:00:00 - - - - - - -
13.08.2018 21:00:00 - - - - - - -
13.08.2018 20:00:00 28,0 28,0 5 3 NO 1012,8 25
13.08.2018 19:00:00 - - - - - - -
13.08.2018 18:00:00 - - - - - - -
13.08.2018 17:00:00 30,0 27,0 18 10 ONO 1012,8 25
13.08.2018 16:00:00 - - - - - - -
13.08.2018 15:00:00 - - - - - - -
13.08.2018 14:00:00 29,2 27,2 16 9 O 1014,0 25
13.08.2018 13:00:00 - - - - - - -
13.08.2018 12:00:00 - - - - - - -
13.08.2018 11:00:00 29,6 22,6 8 4 SO 1013,8 25
13.08.2018 10:00:00 - - - - - - -

tt = Temperatura
td = dewpoint
ff = velocità del vento
dd = direzione del vento
ppp = reduced air pressure
vv = visibility

Stazioni seguenti

WeatherPro
AMSI
MeteoEarth